Flag for Norway Weather past 2 weeks in Hammerfest, Norway

Now
25 °F

Passing clouds.


Feels Like: 17 °F
Forecast: 27 / 31 °F
Wind: 7 mph from Northeast

Location: Hammerfest

Current Time: Oct 20, 2014 at 8:09:17 PM

Latest Report: Oct 20, 2014 at 6:50 PM


Visibility: N/A

Pressure: 29.77 "Hg

Humidity: 80%

Dew point: 19 °F

Location of HammerfestLocation

Historic Weather in Hammerfest — Graph

°F

Hammerfest temperature yesterday

Maximum temperature yesterday: 37 °F (at 12:50 AM)
Minimum temperature yesterday: 30 °F (at 5:50 AM)
Average temperature yesterday: 33 °F

Past Weeks' High & Low Weather Summary

 TemperatureHumidityPressure
High52 °F (Oct 6, 3:50 PM)100% (Oct 6, 11:50 PM)30.54 "Hg (Oct 6, 11:50 PM)
Low23 °F (Oct 15, 8:50 AM)52% (Oct 9, 5:50 PM)29.71 "Hg (Oct 20, 4:50 AM)
Average36 °F81%30.03 "Hg
* Reported Oct 5 6:50 PM — Oct 20 6:50 PM, Hammerfest, Weather by CustomWeather, © 2014

Note: Actual official high and low records may vary slightly from our data, if they occured in-between our weather recording intervals... More about our weather records

Advertising

Hammerfest weather history for previous 24 hours

 ConditionsComfort  
Time TempWeatherWind HumidityBarometerVisibility
6:50 PM
Oct 20
25 °FPassing clouds.7 mph80%29.77 "HgN/A
5:50 PM27 °FPassing clouds.9 mph69%29.77 "HgN/A
4:50 PM27 °FSunny.6 mph80%29.77 "Hg10 mi
3:50 PM30 °FSunny.8 mph64%29.74 "Hg10 mi
2:50 PM30 °FPassing clouds.8 mph69%29.74 "HgN/A
1:50 PM30 °FSunny.12 mph80%29.74 "Hg10 mi
12:50 PM32 °FSunny.8 mph69%29.74 "Hg10 mi
11:50 AM30 °FPassing clouds.9 mph75%29.74 "HgN/A
10:50 AM32 °FSunny.12 mph69%29.74 "Hg10 mi
9:50 AM30 °FSunny.9 mph75%29.74 "Hg10 mi
8:50 AM28 °FClear.8 mph80%29.74 "Hg10 mi
7:50 AM30 °FPassing clouds.9 mph69%29.74 "HgN/A
6:50 AM30 °FClear.10 mph69%29.74 "Hg10 mi
4:50 AM30 °FClear.10 mph69%29.71 "Hg10 mi
3:50 AM30 °FClear.10 mph69%29.74 "Hg10 mi
2:50 AM30 °FClear.12 mph69%29.74 "Hg10 mi
1:56 AM27 °FClear.12 mph80%29.74 "Hg10 mi
12:50 AM30 °FClear.10 mph75%29.74 "Hg10 mi
11:50 PM
Oct 19
30 °FClear.6 mph75%29.74 "Hg10 mi
10:50 PM30 °FClear.8 mph80%29.74 "Hg10 mi
9:50 PM30 °FPassing clouds.8 mph86%29.77 "HgN/A
8:50 PM32 °FPassing clouds.8 mph75%29.77 "HgN/A
Weather by CustomWeather, © 2014

See weather overviewHow to use our weather pages